Estación de Morza Norte

Ultimos registro cada 15 minutos 20
Estación Fecha / Hora Temperatura Humedad Lluvia Velocidad Dirección Radiación Presion
20 Morza Norte 05-05-2026 04:45 8,4 67 0 0 149 0 1016,3
19 Morza Norte 05-05-2026 04:30 8,3 99 0 0 149 0 1015,7
18 Morza Norte 05-05-2026 04:15 8,2 68 0 0 149 0 1015,5
17 Morza Norte 05-05-2026 04:00 8,2 68 0 0 148 0 1015,5
16 Morza Norte 05-05-2026 03:45 8,2 68 0 0 148 0 1015,3
15 Morza Norte 05-05-2026 03:30 8,1 68 0 0 148 0 1015,6
14 Morza Norte 05-05-2026 03:15 8,1 68 0 0 148 0 1015,7
13 Morza Norte 05-05-2026 03:00 8,1 68 0 0 148 0 1015,7
12 Morza Norte 05-05-2026 02:45 8,2 68 0 0 148 0 1015,9
11 Morza Norte 05-05-2026 02:30 8,2 99 0 0 148 0 1015,9
10 Morza Norte 05-05-2026 02:15 8,2 68 0 0 148 0 1015,9
9 Morza Norte 05-05-2026 02:00 7,9 68 0 0 148 0 1016,2
8 Morza Norte 05-05-2026 01:45 7,4 67 0 0 148 0 1016,2
7 Morza Norte 05-05-2026 01:30 7,3 99 0 0 148 0 1016,5
6 Morza Norte 05-05-2026 01:15 6,9 66 0 0 148 0 1016,6
5 Morza Norte 05-05-2026 01:00 6,7 66 0 0 149 0 1016,4
4 Morza Norte 05-05-2026 00:45 6,8 66 0 0 149 0 1016,5
3 Morza Norte 05-05-2026 00:30 7,1 66 0 0 149 0 1016,5
2 Morza Norte 05-05-2026 00:15 7,7 65 0 0 149 0 1016,4
1 Morza Norte 05-05-2026 00:00 8,4 65 0 0 149 0 1016,5